When you browse on this site, cookies collect data to enhance your experience and personalize the content and advertising you see.
Visit our Privacy Policy to learn more. By continuing to use the site, you agree to this use of cookies and data.
  • In Austria
  • List of Countries
  • For 7 days
  • Water Temperature
  • Satellite Maps
  • Weather Map
  • News
  • Weather Widgets
  • user-avatar
    Login

    Hourly Weather Baraki Barak

    Today, 24 June, Monday

    Time Temperature Precipitation Wind Pressure Humidity
    00:00 +21°C° 0 mm 3 mps 599 mmHg 27%
    01:00 +20°C° 0 mm 2 mps 598 mmHg 27%
    02:00 +19°C° 0 mm 2 mps 598 mmHg 28%
    03:00 +20°C° 0 mm 1 mps 598 mmHg 29%
    04:00 +19°C° 0 mm 1 mps 598 mmHg 30%
    05:00 +19°C° 0 mm 1 mps 598 mmHg 31%
    06:00 +20°C° 0 mm 1 mps 599 mmHg 29%
    07:00 +21°C° 0 mm 1 mps 599 mmHg 27%
    08:00 +21°C° 0 mm 2 mps 600 mmHg 25%
    09:00 +23°C° 0 mm 2 mps 600 mmHg 24%
    10:00 +24°C° 0 mm 2 mps 600 mmHg 23%
    11:00 +25°C° 0 mm 3 mps 601 mmHg 21%
    12:00 +26°C° 0 mm 2 mps 601 mmHg 21%
    13:00 +27°C° 0 mm 2 mps 601 mmHg 20%
    14:00 +28°C° 0 mm 2 mps 601 mmHg 20%
    15:00 +27°C° 0.5 mm 3 mps 600 mmHg 28%
    16:00 +25°C° 0.5 mm 5 mps 599 mmHg 36%
    17:00 +23°C° 0 mm 8 mps 598 mmHg 43%
    18:00 +23°C° 0.1 mm 6 mps 599 mmHg 43%
    19:00 +22°C° 0.1 mm 3 mps 599 mmHg 43%
    20:00 +23°C° 0.1 mm 1 mps 599 mmHg 43%
    21:00 +22°C° 0 mm 1 mps 599 mmHg 44%
    22:00 +22°C° 0 mm 1 mps 600 mmHg 46%
    23:00 +20°C° 0 mm 0 mps 600 mmHg 47%

    Tomorrow, 25 June, Tuesday

    Time Temperature Precipitation Wind Pressure Humidity
    00:00 +21°C° 0 mm 1 mps 600 mmHg 46%
    01:00 +21°C° 0 mm 1 mps 599 mmHg 45%
    02:00 +20°C° 0 mm 1 mps 599 mmHg 44%
    03:00 +19°C° 0 mm 1 mps 599 mmHg 43%
    04:00 +19°C° 0 mm 1 mps 598 mmHg 42%
    05:00 +18°C° 0 mm 1 mps 598 mmHg 40%
    06:00 +19°C° 0 mm 1 mps 599 mmHg 34%
    07:00 +21°C° 0 mm 1 mps 600 mmHg 28%
    08:00 +22°C° 0 mm 1 mps 601 mmHg 22%
    09:00 +23°C° 0 mm 1 mps 601 mmHg 20%
    10:00 +25°C° 0 mm 1 mps 601 mmHg 18%
    11:00 +26°C° 0 mm 1 mps 601 mmHg 16%
    12:00 +27°C° 0 mm 1 mps 601 mmHg 13%
    13:00 +28°C° 0 mm 1 mps 601 mmHg 11%
    14:00 +29°C° 0 mm 2 mps 601 mmHg 8%
    15:00 +30°C° 0 mm 2 mps 601 mmHg 8%
    16:00 +30°C° 0 mm 3 mps 601 mmHg 7%
    17:00 +32°C° 0 mm 4 mps 601 mmHg 6%
    18:00 +29°C° 0 mm 4 mps 601 mmHg 9%
    19:00 +28°C° 0 mm 5 mps 600 mmHg 12%
    20:00 +26°C° 0 mm 5 mps 600 mmHg 15%
    21:00 +25°C° 0 mm 4 mps 600 mmHg 17%
    22:00 +24°C° 0 mm 3 mps 599 mmHg 19%
    23:00 +23°C° 0 mm 2 mps 599 mmHg 21%

    Day after tomorrow, 26 June, Wednesday

    Time Temperature Precipitation Wind Pressure Humidity
    00:00 +23°C° 0 mm 2 mps 599 mmHg 23%
    01:00 +22°C° 0 mm 1 mps 598 mmHg 24%
    02:00 +21°C° 0 mm 1 mps 598 mmHg 26%
    03:00 +20°C° 0 mm 1 mps 597 mmHg 27%
    04:00 +20°C° 0 mm 1 mps 597 mmHg 28%
    05:00 +17°C° 0 mm 0 mps 596 mmHg 29%
    06:00 +18°C° 0 mm 0 mps 597 mmHg 26%
    07:00 +22°C° 0 mm 1 mps 598 mmHg 23%
    08:00 +23°C° 0 mm 1 mps 599 mmHg 20%
    09:00 +25°C° 0 mm 1 mps 599 mmHg 19%
    10:00 +26°C° 0 mm 1 mps 599 mmHg 17%
    11:00 +27°C° 0 mm 1 mps 599 mmHg 15%
    12:00 +28°C° 0 mm 1 mps 599 mmHg 13%
    13:00 +29°C° 0 mm 2 mps 600 mmHg 11%
    14:00 +31°C° 0 mm 2 mps 600 mmHg 10%
    15:00 +31°C° 0 mm 2 mps 599 mmHg 10%
    16:00 +31°C° 0 mm 2 mps 599 mmHg 10%
    17:00 +31°C° 0 mm 2 mps 599 mmHg 10%
    18:00 +30°C° 0 mm 3 mps 598 mmHg 11%
    19:00 +29°C° 0 mm 5 mps 598 mmHg 13%
    20:00 +28°C° 0 mm 6 mps 598 mmHg 15%
    21:00 +27°C° 0 mm 5 mps 598 mmHg 17%
    22:00 +26°C° 0 mm 3 mps 598 mmHg 20%
    23:00 +25°C° 0 mm 1 mps 598 mmHg 23%

    27 June, Thursday

    Time Temperature Precipitation Wind Pressure Humidity
    00:00 +24°C° 0 mm 1 mps 597 mmHg 25%
    01:00 +23°C° 0 mm 1 mps 597 mmHg 26%
    02:00 +22°C° 0 mm 1 mps 596 mmHg 27%
    03:00 +22°C° 0 mm 1 mps 596 mmHg 28%
    04:00 +21°C° 0 mm 1 mps 596 mmHg 29%
    05:00 +20°C° 0 mm 1 mps 595 mmHg 30%
    06:00 +21°C° 0 mm 1 mps 596 mmHg 27%
    07:00 +23°C° 0 mm 1 mps 597 mmHg 24%
    08:00 +24°C° 0 mm 1 mps 597 mmHg 21%
    09:00 +25°C° 0 mm 2 mps 598 mmHg 19%
    10:00 +26°C° 0 mm 2 mps 598 mmHg 18%
    11:00 +28°C° 0 mm 2 mps 598 mmHg 16%
    12:00 +29°C° 0 mm 2 mps 598 mmHg 15%
    13:00 +29°C° 0 mm 2 mps 598 mmHg 14%
    14:00 +30°C° 0 mm 2 mps 598 mmHg 12%
    15:00 +31°C° 0 mm 2 mps 598 mmHg 12%
    16:00 +31°C° 0 mm 2 mps 597 mmHg 12%
    17:00 +31°C° 0 mm 3 mps 597 mmHg 12%
    18:00 +30°C° 0 mm 4 mps 597 mmHg 13%
    19:00 +29°C° 0 mm 5 mps 597 mmHg 14%
    20:00 +28°C° 0 mm 6 mps 597 mmHg 14%
    21:00 +27°C° 0 mm 5 mps 597 mmHg 15%
    22:00 +26°C° 0 mm 3 mps 597 mmHg 16%
    23:00 +25°C° 0 mm 2 mps 597 mmHg 17%

    28 June, Friday

    Time Temperature Precipitation Wind Pressure Humidity
    00:00 +24°C° 0 mm 2 mps 596 mmHg 17%
    01:00 +23°C° 0 mm 1 mps 596 mmHg 18%
    02:00 +22°C° 0 mm 1 mps 595 mmHg 19%
    03:00 +21°C° 0 mm 1 mps 595 mmHg 19%
    04:00 +21°C° 0 mm 1 mps 595 mmHg 20%
    05:00 +20°C° 0 mm 1 mps 594 mmHg 21%
    06:00 +22°C° 0 mm 1 mps 595 mmHg 19%
    07:00 +23°C° 0 mm 1 mps 596 mmHg 18%
    08:00 +24°C° 0 mm 2 mps 597 mmHg 16%
    09:00 +25°C° 0 mm 2 mps 597 mmHg 15%
    10:00 +27°C° 0 mm 2 mps 598 mmHg 14%
    11:00 +28°C° 0 mm 3 mps 598 mmHg 13%
    12:00 +29°C° 0 mm 2 mps 598 mmHg 12%
    13:00 +30°C° 0 mm 2 mps 598 mmHg 12%
    14:00 +30°C° 0 mm 1 mps 597 mmHg 11%
    15:00 +31°C° 0 mm 2 mps 597 mmHg 11%
    16:00 +31°C° 0 mm 2 mps 597 mmHg 11%
    17:00 +31°C° 0 mm 3 mps 597 mmHg 11%
    18:00 +30°C° 0 mm 4 mps 597 mmHg 13%
    19:00 +29°C° 0 mm 5 mps 597 mmHg 14%
    20:00 +28°C° 0 mm 6 mps 597 mmHg 16%
    21:00 +27°C° 0 mm 5 mps 597 mmHg 18%
    22:00 +26°C° 0 mm 3 mps 597 mmHg 20%
    23:00 +25°C° 0 mm 2 mps 597 mmHg 21%

    29 June, Saturday

    Time Temperature Precipitation Wind Pressure Humidity
    00:00 +24°C° 0 mm 2 mps 596 mmHg 23%
    01:00 +24°C° 0 mm 2 mps 596 mmHg 24%
    02:00 +23°C° 0 mm 1 mps 596 mmHg 25%
    03:00 +22°C° 0 mm 1 mps 595 mmHg 27%
    04:00 +21°C° 0 mm 1 mps 595 mmHg 29%
    05:00 +21°C° 0 mm 1 mps 595 mmHg 31%
    06:00 +22°C° 0 mm 1 mps 595 mmHg 28%
    07:00 +23°C° 0 mm 1 mps 596 mmHg 26%
    08:00 +25°C° 0 mm 1 mps 597 mmHg 23%
    09:00 +26°C° 0 mm 1 mps 597 mmHg 21%
    10:00 +27°C° 0 mm 1 mps 597 mmHg 20%
    11:00 +28°C° 0 mm 1 mps 598 mmHg 18%
    12:00 +30°C° 0 mm 1 mps 598 mmHg 17%
    13:00 +31°C° 0 mm 1 mps 598 mmHg 15%
    14:00 +32°C° 0 mm 1 mps 598 mmHg 13%
    15:00 +32°C° 0 mm 2 mps 598 mmHg 14%
    16:00 +33°C° 0 mm 3 mps 597 mmHg 14%
    17:00 +33°C° 0 mm 4 mps 597 mmHg 15%
    18:00 +30°C° 0 mm 4 mps 597 mmHg 18%
    19:00 +29°C° 0 mm 4 mps 597 mmHg 20%
    20:00 +28°C° 0 mm 4 mps 596 mmHg 23%
    21:00 +27°C° 0 mm 3 mps 597 mmHg 24%
    22:00 +26°C° 0 mm 2 mps 597 mmHg 26%
    23:00 +25°C° 0 mm 2 mps 597 mmHg 27%
    Show more